TimeEDT,TemperatureF,Dew PointF,Humidity,Sea Level PressureIn,VisibilityMPH,Wind Direction,Wind SpeedMPH,Gust SpeedMPH,PrecipitationIn,Events,Conditions,WindDirDegrees,DateUTC
12:15 AM,40.1,25.9,57,30.16,10.0,North,3.5,-,N/A,,Clear,10,2013-04-03 04:15:00
12:35 AM,39.0,26.8,62,30.15,10.0,North,4.6,-,N/A,,Clear,10,2013-04-03 04:35:00
12:55 AM,40.5,21.7,47,30.17,10.0,North,4.6,-,N/A,,Clear,360,2013-04-03 04:55:00
1:15 AM,41.0,20.7,44,30.17,10.0,North,4.6,-,N/A,,Mostly Cloudy,350,2013-04-03 05:15:00
1:35 AM,41.9,19.2,40,30.18,10.0,North,4.6,-,N/A,,Overcast,350,2013-04-03 05:35:00
1:55 AM,41.7,17.8,38,30.19,10.0,NNE,3.5,-,N/A,,Overcast,20,2013-04-03 05:55:00
2:15 AM,41.2,18.5,40,30.19,10.0,North,4.6,-,N/A,,Overcast,360,2013-04-03 06:15:00
2:35 AM,40.6,19.6,43,30.19,10.0,North,4.6,-,N/A,,Overcast,360,2013-04-03 06:35:00
2:55 AM,40.5,20.5,45,30.20,10.0,North,3.5,-,N/A,,Overcast,360,2013-04-03 06:55:00
3:15 AM,40.6,19.6,43,30.21,10.0,North,3.5,-,N/A,,Overcast,10,2013-04-03 07:15:00
3:35 AM,39.6,21.4,48,30.21,10.0,Calm,Calm,-,N/A,,Overcast,0,2013-04-03 07:35:00
3:55 AM,39.4,21.0,48,30.21,10.0,NNE,3.5,-,N/A,,Mostly Cloudy,30,2013-04-03 07:55:00
4:15 AM,38.5,22.8,53,30.20,10.0,NNE,3.5,-,N/A,,Mostly Cloudy,20,2013-04-03 08:15:00
4:35 AM,38.7,20.7,48,30.20,10.0,NNE,4.6,-,N/A,,Overcast,20,2013-04-03 08:35:00
4:55 AM,38.5,19.8,47,30.20,10.0,NNE,3.5,-,N/A,,Mostly Cloudy,30,2013-04-03 08:55:00
5:15 AM,36.9,21.4,54,30.21,10.0,Calm,Calm,-,N/A,,Scattered Clouds,0,2013-04-03 09:15:00
5:35 AM,36.9,19.6,50,30.22,10.0,Calm,Calm,-,N/A,,Mostly Cloudy,0,2013-04-03 09:35:00
5:55 AM,34.0,23.0,64,30.22,10.0,Calm,Calm,-,N/A,,Scattered Clouds,0,2013-04-03 09:55:00
6:15 AM,33.6,26.2,74,30.23,10.0,North,4.6,-,N/A,,Scattered Clouds,350,2013-04-03 10:15:00
6:35 AM,34.7,24.1,65,30.22,10.0,North,4.6,-,N/A,,Clear,360,2013-04-03 10:35:00
6:55 AM,32.0,25.0,75,30.22,10.0,North,3.5,-,N/A,,Clear,360,2013-04-03 10:55:00
7:15 AM,32.4,25.5,76,30.23,10.0,North,4.6,-,N/A,,Clear,360,2013-04-03 11:15:00
7:55 AM,36.0,21.7,56,30.25,10.0,Calm,Calm,-,N/A,,Clear,0,2013-04-03 11:55:00
8:15 AM,38.8,23.2,53,30.28,10.0,Calm,Calm,-,N/A,,Clear,0,2013-04-03 12:15:00
8:35 AM,40.8,22.5,48,30.27,10.0,Calm,Calm,-,N/A,,Clear,0,2013-04-03 12:35:00
8:55 AM,41.9,20.5,42,30.28,10.0,NE,4.6,-,N/A,,Clear,40,2013-04-03 12:55:00
9:15 AM,43.2,18.7,38,30.29,10.0,ENE,5.8,-,N/A,,Clear,60,2013-04-03 13:15:00
9:35 AM,44.2,18.1,35,30.29,10.0,ENE,4.6,-,N/A,,Clear,70,2013-04-03 13:35:00
9:55 AM,46.4,16.9,31,30.29,10.0,ENE,3.5,-,N/A,,Clear,60,2013-04-03 13:55:00
10:15 AM,47.5,15.1,27,30.29,10.0,ENE,6.9,-,N/A,,Clear,60,2013-04-03 14:15:00
10:35 AM,47.5,13.5,26,30.29,10.0,NNE,8.1,-,N/A,,Clear,30,2013-04-03 14:35:00
10:55 AM,47.8,13.8,26,30.29,10.0,NNW,6.9,-,N/A,,Clear,340,2013-04-03 14:55:00
11:15 AM,48.9,14.7,26,30.29,10.0,North,8.1,-,N/A,,Clear,360,2013-04-03 15:15:00
11:35 AM,48.9,13.5,24,30.28,10.0,North,4.6,-,N/A,,Clear,350,2013-04-03 15:35:00
11:55 AM,50.0,14.2,24,30.27,10.0,West,6.9,-,N/A,,Clear,280,2013-04-03 15:55:00
12:15 PM,50.4,13.1,23,30.27,10.0,North,8.1,-,N/A,,Clear,350,2013-04-03 16:15:00
12:35 PM,51.1,14.2,23,30.25,10.0,NW,9.2,16.1,N/A,,Clear,320,2013-04-03 16:35:00
12:55 PM,52.3,15.4,23,30.25,10.0,WNW,6.9,-,N/A,,Clear,290,2013-04-03 16:55:00
1:15 PM,52.5,14.5,22,30.23,10.0,NE,12.7,19.6,N/A,,Clear,40,2013-04-03 17:15:00
1:35 PM,52.9,14.7,22,30.24,10.0,West,6.9,-,N/A,,Clear,260,2013-04-03 17:35:00
1:55 PM,53.6,16.2,23,30.24,10.0,South,3.5,-,N/A,,Clear,170,2013-04-03 17:55:00
2:15 PM,54.9,15.4,21,30.23,10.0,North,9.2,-,N/A,,Clear,350,2013-04-03 18:15:00
2:35 PM,54.0,13.6,20,30.22,10.0,Calm,Calm,-,N/A,,Clear,0,2013-04-03 18:35:00
2:55 PM,55.0,13.8,20,30.21,10.0,WNW,3.5,-,N/A,,Clear,300,2013-04-03 18:55:00
3:15 PM,55.4,12.4,18,30.21,10.0,WSW,9.2,16.1,N/A,,Clear,250,2013-04-03 19:15:00
3:35 PM,55.2,11.5,18,30.21,10.0,West,3.5,-,N/A,,Clear,280,2013-04-03 19:35:00
3:55 PM,56.7,14.0,19,30.21,10.0,WNW,6.9,-,N/A,,Clear,300,2013-04-03 19:55:00
4:15 PM,56.7,14.0,19,30.21,10.0,NW,6.9,-,N/A,,Clear,310,2013-04-03 20:15:00
4:35 PM,56.8,12.9,18,30.21,10.0,WNW,6.9,-,N/A,,Clear,300,2013-04-03 20:35:00
4:55 PM,56.8,13.1,18,30.21,10.0,WSW,6.9,-,N/A,,Clear,240,2013-04-03 20:55:00
5:15 PM,56.7,11.5,17,30.22,10.0,NW,8.1,-,N/A,,Clear,320,2013-04-03 21:15:00
5:35 PM,55.9,11.3,17,30.22,10.0,NW,8.1,-,N/A,,Clear,320,2013-04-03 21:35:00
5:55 PM,55.4,10.0,16,30.22,10.0,NNW,10.4,-,N/A,,Clear,330,2013-04-03 21:55:00
6:15 PM,55.0,10.4,17,30.22,10.0,NW,6.9,-,N/A,,Clear,320,2013-04-03 22:15:00
6:35 PM,54.5,11.1,18,30.23,10.0,NW,5.8,-,N/A,,Clear,320,2013-04-03 22:35:00
6:55 PM,53.4,13.3,20,30.24,10.0,Calm,Calm,-,N/A,,Clear,0,2013-04-03 22:55:00
7:15 PM,52.7,12.7,20,30.24,10.0,NW,3.5,-,N/A,,Clear,320,2013-04-03 23:15:00
7:35 PM,51.1,16.9,26,30.24,10.0,Calm,Calm,-,N/A,,Clear,0,2013-04-03 23:35:00
7:55 PM,50.4,15.1,25,30.23,10.0,Calm,Calm,-,N/A,,Clear,0,2013-04-03 23:55:00
8:15 PM,48.6,15.8,27,30.24,10.0,Calm,Calm,-,N/A,,Clear,0,2013-04-04 00:15:00
8:35 PM,46.8,29.7,51,30.24,10.0,Calm,Calm,-,N/A,,Clear,0,2013-04-04 00:35:00
8:55 PM,47.1,19.0,33,30.26,10.0,Calm,Calm,-,N/A,,Clear,0,2013-04-04 00:55:00
9:15 PM,47.5,21.6,36,30.27,10.0,Calm,Calm,-,N/A,,Clear,0,2013-04-04 01:15:00
9:35 PM,45.5,25.3,45,30.27,10.0,Calm,Calm,-,N/A,,Clear,0,2013-04-04 01:35:00
9:55 PM,44.8,23.9,44,30.27,10.0,Calm,Calm,-,N/A,,Clear,0,2013-04-04 01:55:00
10:15 PM,43.2,29.5,59,30.29,10.0,Calm,Calm,-,N/A,,Clear,0,2013-04-04 02:15:00
10:35 PM,42.1,26.6,54,30.30,10.0,Calm,Calm,-,N/A,,Clear,0,2013-04-04 02:35:00
10:55 PM,41.9,31.5,66,30.30,10.0,Calm,Calm,-,N/A,,Clear,0,2013-04-04 02:55:00
11:15 PM,42.4,27.3,55,30.30,10.0,Calm,Calm,-,N/A,,Clear,0,2013-04-04 03:15:00
11:35 PM,41.7,28.8,60,30.30,10.0,Calm,Calm,-,N/A,,Clear,0,2013-04-04 03:35:00
11:55 PM,42.3,28.9,59,30.30,10.0,Calm,Calm,-,N/A,,Clear,0,2013-04-04 03:55:00